Location: Eckley Miners' Village
(40.9930°N, 75.8630°W)
Time: 11:56:07
(UTC-04:00)

Vanguard 1 Rocket - Pass Details

Date: 13 March 2026
Orbit: 654 x 4213 km, 34.3° (Epoch: 11 April)

Event Time Altitude Azimuth Distance (km) Brightness Sun altitude
Rises 06:30:49 0° 208° (SSW) 4,156 10.5 -9.8°
Reaches altitude 10° 06:36:09 10° 178° (S) 2,584 9.7 -8.8°
Maximum altitude 06:38:04 12° 158° (SSE) 2,293 9.7 -8.4°
Drops below altitude 10° 06:39:48 10° 138° (SE) 2,270 10.0 -8.1°
Sets 06:43:36 0° 103° (ESE) 2,996 11.9 -7.4°
